EW6370 Weather Reports


time (UTC)temp
F
wind
direction
speed
knots
gust
knots
rain 1hr
in
rain 24hr
in
rain mn
in
humidity
%
barometer
mb
20260906023044 74 327 0.0 0.0 0.00 0.00 0.00 53 1022.8
20260906021545 74 331 0.0 0.0 0.00 0.00 0.00 53 1022.7
20260906020041 74 340 0.0 0.0 0.00 0.00 0.00 53 1022.6
20260906014548 74 76 0.0 0.0 0.00 0.00 0.00 53 1022.6
20260906013040 74 300 0.0 0.0 0.00 0.00 0.00 53 1022.5
20260906011539 74 301 0.0 0.9 0.00 0.00 0.00 53 1022.3
20260906010048 74 306 0.0 0.0 0.00 0.00 0.00 53 1022.3
20260906004545 74 306 0.0 0.0 0.00 0.00 0.00 54 1022.5
20260906003036 74 306 0.0 0.9 0.00 0.00 0.00 53 1022.2
20260906001548 74 307 0.0 0.0 0.00 0.00 0.00 53 1022.2
20260906000132 75 309 0.0 0.0 0.00 0.00 0.00 53 1022.1
20260905234530 75 309 0.0 0.9 0.00 0.00 0.00 52 1021.8
20260905233032 75 311 0.0 0.9 0.00 0.00 0.00 52 1021.8
20260905231529 75 311 0.0 0.9 0.00 0.00 0.00 51 1021.7
20260905230031 75 309 0.0 1.7 0.00 0.00 0.00 51 1021.6
20260905224525 75 304 0.0 0.0 0.00 0.00 0.00 51 1021.7
20260905223039 75 309 0.0 0.0 0.00 0.00 0.00 51 1021.6
20260905221524 76 309 0.0 0.9 0.00 0.00 0.00 50 1021.5
20260905220021 76 317 0.0 0.9 0.00 0.00 0.00 51 1021.5
20260905214519 76 315 0.0 0.0 0.00 0.00 0.00 50 1021.4
20260905213018 76 315 0.0 0.9 0.00 0.00 0.00 50 1021.3
20260905211516 76 304 0.0 1.7 0.00 0.00 0.00 50 1021.1
20260905210016 77 313 0.0 0.9 0.00 0.00 0.00 50 1021.0
20260905204514 77 325 0.0 1.7 0.00 0.00 0.00 49 1021.0
20260905203016 77 296 0.0 0.9 0.00 0.00 0.00 49 1020.9
20260905201520 77 350 0.0 0.9 0.00 0.00 0.00 49 1020.7
20260905200009 77 326 0.0 0.9 0.00 0.00 0.00 49 1020.3
20260905194508 78 306 0.0 0.9 0.00 0.00 0.00 49 1020.1
20260905193015 78 304 0.0 0.9 0.00 0.00 0.00 49 1020.2
20260905191506 78 315 0.0 0.9 0.00 0.00 0.00 48 1020.0
20260905190005 78 298 0.0 0.9 0.00 0.00 0.00 48 1019.9
20260905184548 79 307 0.0 2.6 0.00 0.00 0.00 47 1019.6
20260905183026 79 306 0.0 0.9 0.00 0.00 0.00 46 1019.3
20260905181517 80 304 0.0 0.0 0.00 0.00 0.00 46 1019.1
20260905180016 80 296 0.0 1.7 0.00 0.00 0.00 46 1018.6
20260905174518 80 306 0.0 2.6 0.00 0.00 0.00 45 1018.3
20260905173017 81 296 0.0 0.9 0.00 0.00 0.00 44 1018.2
20260905171510 82 311 0.0 0.9 0.00 0.00 0.00 43 1018.1
20260905170010 82 311 0.0 2.6 0.00 0.00 0.00 43 1018.1
20260905164512 82 304 0.0 0.9 0.00 0.00 0.00 42 1017.9
20260905163007 83 289 0.0 2.6 0.00 0.00 0.00 41 1017.7
20260905161506 83 295 0.0 1.7 0.00 0.00 0.00 41 1017.7
20260905160005 84 304 0.0 2.6 0.00 0.00 0.00 39 1017.4
20260905154503 84 169 0.0 3.5 0.00 0.00 0.00 39 1017.2
20260905153003 85 327 0.0 1.7 0.00 0.00 0.00 38 1017.3
20260905151502 85 319 0.0 1.7 0.00 0.00 0.00 39 1017.1
20260905150002 85 311 0.0 1.7 0.00 0.00 0.00 38 1017.1
20260905144500 84 323 0.0 5.2 0.00 0.00 0.00 39 1017.1
20260905143002 84 309 0.0 3.5 0.00 0.00 0.00 38 1017.2
20260905141600 85 306 0.0 2.6 0.00 0.00 0.00 38 1017.1
20260905140200 85 344 0.0 2.6 0.00 0.00 0.00 38 1017.1
20260905134600 86 305 0.0 1.7 0.00 0.00 0.00 37 1016.8
20260905133059 87 302 0.0 4.3 0.00 0.00 0.00 36 1016.5
20260905131606 87 285 0.0 3.5 0.00 0.00 0.00 36 1016.6
20260905130058 87 321 0.0 5.2 0.00 0.00 0.00 37 1016.5
20260905124558 88 321 0.0 0.9 0.00 0.00 0.00 36 1016.8
20260905123109 88 300 0.0 2.6 0.00 0.00 0.00 36 1016.9
20260905121555 88 154 0.0 1.7 0.00 0.00 0.00 36 1017.0
20260905120055 87 298 0.0 7.0 0.00 0.00 0.00 37 1017.0
20260905114554 87 302 0.0 7.8 0.00 0.00 0.00 37 1016.9
20260905113054 87 323 0.0 3.5 0.00 0.00 0.00 37 1017.1
20260905111557 86 299 0.0 6.1 0.00 0.00 0.00 38 1017.1
20260905110052 87 323 0.0 2.6 0.00 0.00 0.00 38 1017.2
20260905104551 87 311 0.0 6.1 0.00 0.00 0.00 38 1017.0
20260905103056 87 319 0.0 4.3 0.00 0.00 0.00 39 1016.9
20260905101548 87 321 0.0 3.5 0.00 0.00 0.00 41 1016.9
20260905100056 86 304 0.0 3.5 0.00 0.00 0.00 43 1016.6
20260905094546 86 242 0.0 7.0 0.00 0.00 0.00 45 1016.7
20260905093043 87 304 0.0 6.1 0.00 0.00 0.00 46 1016.4
20260905091547 88 319 0.0 3.5 0.00 0.00 0.00 42 1016.1
20260905090040 90 115 0.0 0.0 0.00 0.00 0.00 37 1016.0
20260905084537 91 126 0.0 0.0 0.00 0.00 0.00 36 1015.8
20260905083034 91 121 0.0 0.0 0.00 0.00 0.00 36 1015.6
20260905081530 89 228 0.0 1.7 0.00 0.00 0.00 35 1015.4
20260905080039 88 144 0.0 0.9 0.00 0.00 0.00 38 1015.1
20260905074524 86 101 0.0 0.9 0.00 0.00 0.00 37 1014.9
20260905073025 86 86 0.0 0.9 0.00 0.00 0.00 37 1014.8
20260905071519 85 129 0.0 0.9 0.00 0.00 0.00 38 1014.7
20260905070012 84 141 0.0 0.0 0.00 0.00 0.00 40 1014.7
20260905064508 82 117 0.0 0.9 0.00 0.00 0.00 44 1014.7
20260905063003 80 130 0.0 0.9 0.00 0.00 0.00 47 1014.7
20260905061601 78 128 0.0 0.0 0.00 0.00 0.00 52 1014.6
20260905060100 76 127 0.0 0.0 0.00 0.00 0.00 54 1014.5
20260905054554 74 125 0.0 0.0 0.00 0.00 0.00 58 1014.4
20260905053056 73 125 0.0 0.0 0.00 0.00 0.00 60 1014.3
20260905051552 72 125 0.0 0.9 0.00 0.00 0.00 61 1014.2
20260905050040 72 127 0.0 0.0 0.00 0.00 0.00 62 1014.1
20260905044541 72 315 0.0 0.0 0.00 0.00 0.00 62 1014.1
20260905043031 72 315 0.0 0.9 0.00 0.00 0.00 62 1013.9
20260905041530 72 140 0.0 0.0 0.00 0.00 0.00 61 1013.9
20260905040035 73 140 0.0 0.0 0.00 0.00 0.00 61 1014.0
20260905034528 73 140 0.0 0.0 0.00 0.00 0.00 61 1013.9
20260905033027 73 141 0.0 0.0 0.00 0.00 0.00 61 1013.8
20260905031535 73 140 0.0 0.0 0.00 0.00 0.00 60 1013.8
20260905030026 73 138 0.0 0.0 0.00 0.00 0.00 60 1013.7
20260905024525 73 137 0.0 0.0 0.00 0.00 0.00 60 1013.8